PU2ONU-13 Weather Reports


time (UTC)temp
C
wind
direction
speed
KPH
gust
KPH
rain 1hr
cm
rain 24hr
cm
rain mn
cm
humidity
%
barometer
mb
20260509212013 32 355 1.6 1.6 0.00 0.00 0.00 40 1014.0
20260509210012 34 355 1.6 1.6 0.00 0.00 0.00 35 1013.0
20260509204012 33 355 1.6 1.6 0.00 0.00 0.00 35 1013.0
20260509202012 32 315 1.6 3.2 0.00 0.00 0.00 34 1013.0
20260509194014 31 315 1.6 3.2 0.00 0.00 0.00 36 1012.0
20260509192013 31 305 3.2 6.4 0.00 0.00 0.00 35 1012.0
20260509190014 32 305 3.2 6.4 0.00 0.00 0.00 34 1012.0
20260509184012 31 326 0.0 0.0 0.00 0.00 0.00 34 1012.0
20260509182012 31 326 1.6 1.6 0.00 0.00 0.00 35 1012.0
20260509180013 31 326 4.8 8.0 0.00 0.00 0.00 36 1012.0
20260509174014 31 359 0.0 1.6 0.00 0.00 0.00 37 1013.0
20260509172012 31 359 1.6 3.2 0.00 0.00 0.00 37 1014.0
20260509170013 30 359 6.4 9.7 0.00 0.00 0.00 38 1013.0
20260509164014 29 353 0.0 1.6 0.00 0.00 0.00 39 1014.0
20260509162013 29 353 1.6 3.2 0.00 0.00 0.00 38 1015.0
20260509160013 30 353 8.0 9.7 0.00 0.00 0.00 37 1014.0
20260509154013 29 346 0.0 1.6 0.00 0.00 0.00 40 1014.0
20260509152015 30 346 1.6 3.2 0.00 0.00 0.00 40 1015.0
20260509150013 29 346 6.4 9.7 0.00 0.00 0.00 41 1015.0
20260509144013 29 351 0.0 1.6 0.00 0.00 0.00 41 1015.0
20260509142012 29 351 1.6 3.2 0.00 0.00 0.00 42 1016.0
20260509134014 28 351 6.4 9.7 0.00 0.00 0.00 44 1016.0
20260509132013 30 354 4.8 9.7 0.00 0.00 0.00 40 1017.0
20260509130015 28 354 4.8 9.7 0.00 0.00 0.00 43 1017.0
20260509124013 30 354 4.8 9.7 0.00 0.00 0.00 40 1017.0
20260509122012 29 6 3.2 8.0 0.00 0.00 0.00 41 1018.0
20260509120012 28 6 3.2 8.0 0.00 0.00 0.00 44 1016.0
20260509114013 28 7 3.2 6.4 0.00 0.00 0.00 43 1016.0
20260509112015 28 13 1.6 3.2 0.00 0.00 0.00 45 1016.0
20260509110014 28 13 1.6 3.2 0.00 0.00 0.00 44 1016.0
20260509104014 28 13 1.6 3.2 0.00 0.00 0.00 43 1016.0
20260509102013 27 17 1.6 1.6 0.00 0.00 0.00 44 1016.0
20260509100015 27 17 1.6 1.6 0.00 0.00 0.00 43 1015.0
20260509094013 27 17 1.6 1.6 0.00 0.00 0.00 44 1015.0
20260509092014 27 42 1.6 3.2 0.00 0.00 0.00 44 1015.0
20260509090014 27 42 1.6 3.2 0.00 0.00 0.00 43 1014.0
20260509084014 27 42 1.6 3.2 0.00 0.00 0.00 44 1014.0
20260509082014 27 49 3.2 3.2 0.00 0.00 0.00 44 1014.0
20260509074012 28 49 3.2 3.2 0.00 0.00 0.00 42 1013.0
20260509072013 27 40 1.6 1.6 0.00 0.00 0.00 44 1013.0
20260509070012 27 40 1.6 1.6 0.00 0.00 0.00 45 1013.0
20260509064013 28 40 1.6 1.6 0.00 0.00 0.00 43 1013.0
20260509062012 28 47 1.6 1.6 0.00 0.00 0.00 43 1013.0
20260509060013 28 47 1.6 1.6 0.00 0.00 0.00 44 1014.0
20260509054013 28 55 1.6 1.6 0.00 0.00 0.00 43 1014.0
20260509052014 28 44 1.6 1.6 0.00 0.00 0.00 44 1013.0
20260509050013 28 44 1.6 1.6 0.00 0.00 0.00 43 1013.0
20260509044014 28 44 1.6 1.6 0.00 0.00 0.00 43 1013.0
20260509042014 28 360 3.2 3.2 0.00 0.00 0.00 42 1013.0
20260509040012 29 360 3.2 3.2 0.00 0.00 0.00 41 1014.0
20260509034014 28 360 3.2 3.2 0.00 0.00 0.00 41 1014.0
20260509032014 29 9 3.2 9.7 0.00 0.00 0.00 41 1014.0
20260509030013 29 9 3.2 9.7 0.00 0.00 0.00 41 1013.0
20260509024013 30 9 3.2 9.7 0.00 0.00 0.00 39 1013.0
20260509022014 30 36 4.8 12.9 0.00 0.00 0.00 40 1014.0
20260509014012 30 36 4.8 12.9 0.00 0.00 0.00 38 1013.0
20260509012013 31 51 3.2 6.4 0.00 0.00 0.00 37 1015.0
20260509010012 31 51 3.2 6.4 0.00 0.00 0.00 38 1014.0
20260509004013 31 51 3.2 6.4 0.00 0.00 0.00 38 1014.0
20260509002016 31 61 3.2 4.8 0.00 0.00 0.00 38 1014.0
20260509000023 31 61 3.2 4.8 0.00 0.00 0.00 37 1013.0
20260508234013 31 64 4.8 6.4 0.00 0.00 0.00 37 1013.0
20260508232012 32 53 3.2 3.2 0.00 0.00 0.00 37 1014.0
20260508230014 32 53 3.2 3.2 0.00 0.00 0.00 35 1013.0
20260508224014 32 53 3.2 3.2 0.00 0.00 0.00 36 1013.0
20260508222013 32 43 1.6 1.6 0.00 0.00 0.00 35 1014.0
20260508220013 32 43 1.6 1.6 0.00 0.00 0.00 35 1012.0
20260508214013 32 43 1.6 1.6 0.00 0.00 0.00 34 1012.0